Terug naar catalogus

OKEAN 4

ActiefWetenschapPO
NORAD 23317·PAYLOAD·🇷🇺 Russia

Gelanceerd Oct 11, 1994 vanaf Plesetsk Cosmodrome

Loading…

Volgende Passages (komende 24 uur)

TLE

VersSource: Space-Track

Epoch: Sep 14, 2026, 04:35 UTC

1 23317U 94066A   26257.19144311  .00001396  00000-0  11731-3 0  9992
2 23317  82.5363 169.9169 0015752 340.0669  19.9936 14.97486721728658

Volg OKEAN 4 in realtime met AllMySat

Download on the App Store